Regional Weather Roundup
Issued by NWS Jackson, KY

Home | Current Version | Previous Version | Graphics & Text | Print | Product List | Glossary On
Versions: 1 2 3 4 5 6 7 8 9 10 11 12 13 14 15 16 17 18 19 20 21 22 23 24 25 26 27 28 29 30 31 32 33 34 35 36 37 38 39 40 41 42 43 44 45 46 47 48 49
000
ASUS43 KJKL 071510
RWRJKL

EAST KENTUCKY HOURLY WEATHER ROUNDUP
NATIONAL WEATHER SERVICE JACKSON KY
1100 AM EDT TUE JUL 07 2015

NOTE: "FAIR" INDICATES FEW OR NO CLOUDS BELOW 12,000 FEET WITH
NO SIGNIFICANT WEATHER AND/OR OBSTRUCTIONS TO VISIBILITY.

* THESE REPORTS ARE NOT UNDER NWS QUALITY CONTROL AND MAY NOT
  REPORT WEATHER SUCH AS PRECIPITATION AND FOG.

KYZ079-080-083-085-087-088-110-112-115-119-120-071600
...EASTERN KENTUCKY...

CITY           SKY/WX    TMP DP  RH WIND       PRES   REMARKS
JACKSON        PTSUNNY   78  70  76 CALM      30.12S
LONDON         CLOUDY    79  68  69 SW9       30.12S
SOMERSET*      CLOUDY    77  68  73 SW9G16    30.11S
MONTICELLO*    MOSUNNY   82  73  74 SW13      30.13S
MIDDLESBORO*   PTSUNNY   78  70  77 S12       30.15S
HARLAN APT*      N/A     79  66  65 MISG      30.16S
HAZARD APT*    PTSUNNY   79  70  73 SW9       30.12S
BLACK MTN*       N/A     64  64 100 SW3         N/A
PIKEVILLE APT* CLOUDY    77  70  78 SW5       30.13S
BIG SANDY*     PTSUNNY   80  71  74 S10       30.11S
MOREHEAD APT*  CLOUDY    79  72  78 SW10      30.08F
$$

KYZ035-036-041-042-044-050-067-078-099-071600
...CENTRAL KENTUCKY...

CITY           SKY/WX    TMP DP  RH WIND       PRES   REMARKS
MT STERLING*   CLOUDY    77  72  83 SW14G20   30.08S
FLEMING/MASON* CLOUDY    79  72  78 SW10      30.05S
DANVILLE*      CLOUDY    79  70  73 SW14G20   30.09R
RICHMOND*      PTSUNNY   79  70  73 SW13G18   30.07F
LEXINGTON      PTSUNNY   79  71  76 SW14G23   30.05F
FRANKFORT      CLOUDY    78  70  76 SW13      30.02F
$$

KYZ091>093-OHZ055-061-077-WVZ005-015-034-035-042-071600
...SOUTHERN OHIO/WEST VIRGINIA...

CITY           SKY/WX    TMP DP  RH WIND       PRES   REMARKS
COVINGTON      LGT RAIN  77  72  84 SW8       30.00S
COLUMBUS       CLOUDY    78  71  79 S13       29.98S
DAYTON         CLOUDY    78  72  81 S17       29.98R
WILMINGTON     PTSUNNY   78  70  76 SW20      29.99F
HUNTINGTON     PTSUNNY   79  71  76 MISG      30.06S
CHARLESTON     PTSUNNY   79  69  71 SW10      30.08S
PINEVILLE*     CLOUDY    77  71  80 MISG      30.21R
BECKLEY        MOSUNNY   75  65  70 W8        30.19F
BLUEFIELD      MOSUNNY   77  64  64 W9        30.22S
$$

VAZ002-007-008-TNZ017-027-036-066-071-071600
...SOUTHWEST VIRGINIA/EAST TENNESSEE...

CITY           SKY/WX    TMP DP  RH WIND       PRES   REMARKS
WISE*          PTSUNNY   75  70  83 SW10      30.23R
JONESVILLE*      N/A    N/A N/A N/A MISG        N/A
ABINGDON*      CLOUDY    75  69  82 W7        30.21S
BRISTOL        PTSUNNY   76  68  76 SW6       30.18S
KNOXVILLE      CLOUDY    80  71  74 SW12      30.15S
OAK RIDGE      CLOUDY    78  71  79 CALM      30.16S
CROSSVILLE     PTSUNNY   79  70  74 SW8       30.18S
NASHVILLE      CLOUDY    82  75  79 SW9       30.08S
$$

...KEY TO REMARKS...
VSB - VISIBILITY IN MILES
WCI - WIND CHILL INDEX
HX  - HEAT INDEX

$$



USA.gov is the U.S. government's official web portal to all federal, state and local government web resources and services.